1513486801.14,56832,6.63,72418.8,-16.95,-39.03,-40.53,0,*6A
1513486802.39,56833,6.63,72420.8,-16.95,-38.85,-40.35,0,*64
1513486803.69,56834,6.63,72416.0,-16.95,-38.79,-40.21,0,*65
1513486804.99,56835,6.63,72420.8,-16.95,-38.79,-40.21,0,*64
1513486806.26,56836,6.63,72424.5,-16.95,-38.79,-40.15,0,*60
1513486807.51,56837,6.63,72426.5,-16.97,-38.61,-39.97,0,*6E
1513486808.78,56838,6.63,72424.5,-16.95,-38.61,-39.97,0,*63
1513486810.05,56839,6.63,72430.5,-16.95,-38.79,-40.15,0,*6F
1513486811.35,56840,6.63,72424.0,-16.95,-38.79,-40.21,0,*66
1513486812.64,56841,6.63,72426.3,-16.95,-38.67,-40.21,0,*68
1513486813.94,56842,6.63,72428.0,-16.95,-39.03,-40.41,0,*6E
1513486815.21,56843,6.63,72424.0,-16.95,-38.97,-40.41,0,*63
1513486816.51,56844,6.63,72420.0,-16.95,-38.79,-40.21,0,*62
1513486817.79,56845,6.63,72422.8,-16.95,-38.85,-40.21,0,*60
1513486819.06,56846,6.63,72422.8,-16.95,-38.79,-40.35,0,*65
1513486820.28,56847,6.63,72426.8,-16.97,-38.85,-40.35,0,*65
1513486821.53,56848,6.63,72424.3,-16.95,-38.85,-40.35,0,*68
1513486822.75,56849,6.63,72426.8,-16.97,-38.85,-40.35,0,*6B
1513486824.03,56850,6.63,72422.8,-16.95,-38.79,-40.15,0,*60
1513486825.29,56851,6.63,72422.5,-16.95,-38.67,-40.15,0,*6E
1513486826.57,56852,6.63,72424.3,-16.95,-38.79,-40.35,0,*60
1513486827.81,56853,6.63,72424.3,-16.97,-38.79,-40.15,0,*61
1513486829.05,56854,6.63,72422.5,-16.97,-38.67,-40.03,0,*6E
1513486830.28,56855,6.63,72422.5,-16.97,-38.85,-40.15,0,*64
1513486831.55,56856,6.63,72420.8,-16.97,-38.79,-40.21,0,*63
1513486832.76,56857,6.63,72426.0,-16.97,-38.97,-40.35,0,*67
1513486834.03,56858,6.63,72424.0,-16.95,-38.97,-40.41,0,*69
1513486835.27,56859,6.63,72422.8,-16.97,-38.67,-40.03,0,*63
1513486836.49,56860,6.63,72426.3,-16.97,-38.61,-40.15,0,*68
1513486837.74,56861,6.63,72426.5,-16.97,-38.85,-40.21,0,*64
1513486838.99,56862,6.63,72422.8,-16.95,-38.85,-40.35,0,*60
1513486840.23,56863,6.63,72424.8,-16.97,-38.85,-40.21,0,*66
1513486841.51,56864,6.63,72430.5,-16.95,-38.79,-40.15,0,*67
1513486842.73,56865,6.63,72422.5,-16.97,-38.55,-39.85,0,*6D
1513486843.97,56866,6.63,72420.8,-16.97,-38.43,-39.97,0,*6A
1513486845.21,56867,6.63,72422.5,-16.97,-38.61,-39.97,0,*6B
1513486846.48,56868,6.63,72428.0,-16.97,-38.67,-40.21,0,*61
1513486847.71,56869,6.63,72426.0,-16.97,-38.67,-40.03,0,*60
1513486848.99,56870,6.63,72426.0,-16.99,-38.79,-40.15,0,*6E
1513486850.24,56871,6.63,72424.5,-16.97,-38.85,-40.21,0,*65
1513486851.49,56872,6.63,72424.5,-16.97,-38.85,-40.21,0,*66
1513486852.74,56873,6.63,72424.0,-16.97,-38.85,-40.41,0,*61
1513486853.99,56874,6.63,72422.5,-16.95,-38.97,-40.53,0,*64
1513486855.23,56875,6.63,72426.8,-16.97,-38.85,-40.21,0,*61
1513486856.51,56876,6.63,72424.3,-16.97,-39.03,-40.41,0,*6B
1513486857.76,56877,6.63,72426.8,-16.97,-38.85,-40.41,0,*65
1513486859.03,56878,6.63,72426.0,-16.97,-38.79,-40.21,0,*6F
1513486860.28,56879,6.63,72422.3,-16.97,-38.79,-40.35,0,*6B
1513486861.54,56880,6.63,72420.5,-16.97,-38.67,-40.21,0,*67
1513486862.82,56881,6.63,72424.5,-16.97,-38.79,-40.21,0,*69
1513486864.07,56882,6.63,72426.0,-16.99,-38.85,-40.35,0,*62
1513486865.32,56883,6.63,72426.3,-17.01,-38.85,-40.21,0,*66
1513486866.62,56884,6.63,72422.8,-16.99,-38.79,-40.21,0,*62
1513486867.87,56885,6.63,72422.3,-17.01,-39.09,-40.59,0,*6A
1513486869.11,56886,6.63,72420.5,-16.99,-38.97,-40.35,0,*65
1513486870.36,56887,6.63,72420.3,-17.01,-39.03,-40.47,0,*6D
1513486871.61,56888,6.63,72422.0,-17.01,-39.09,-40.59,0,*67
1513486872.83,56889,6.63,72418.3,-17.01,-39.09,-40.47,0,*69
1513486874.07,56890,6.63,72420.8,-17.01,-38.91,-40.47,0,*61
1513486875.31,56891,6.63,72426.0,-17.01,-38.91,-40.47,0,*60
1513486876.59,56892,6.63,72426.3,-17.01,-39.03,-40.41,0,*6F
1513486877.82,56893,6.63,72420.8,-17.01,-38.67,-40.03,0,*6B
1513486879.09,56894,6.63,72418.8,-16.99,-38.43,-39.97,0,*69
1513486880.31,56895,6.63,72420.0,-17.01,-38.61,-40.03,0,*6B
1513486881.55,56896,6.63,72420.5,-17.01,-38.49,-40.03,0,*62
1513486882.81,56897,6.63,72428.3,-16.99,-38.61,-40.15,0,*6E
1513486884.07,56898,6.63,72424.8,-16.99,-38.67,-40.03,0,*60
1513486885.32,56899,6.63,72426.8,-16.99,-38.43,-39.85,0,*67
1513486886.56,56900,6.63,72426.8,-17.01,-37.87,-39.41,0,*69
1513486887.82,56901,6.63,72424.5,-17.01,-37.69,-39.23,0,*6C
1513486889.12,56902,6.63,72426.8,-16.99,-37.51,-39.03,0,*66
1513486890.38,56903,6.63,72430.8,-16.97,-37.69,-39.23,0,*60
1513486891.62,56904,6.63,72426.3,-16.97,-37.63,-38.97,0,*63
1513486892.84,56905,6.63,72426.5,-16.97,-37.45,-38.85,0,*65
1513486894.11,56906,6.63,72430.0,-16.97,-37.81,-39.23,0,*63
1513486895.35,56907,6.63,72428.5,-16.95,-38.05,-39.35,0,*64
1513486896.61,56908,6.63,72426.8,-16.95,-38.17,-39.53,0,*68
1513486897.88,56909,6.63,72426.0,-16.95,-38.35,-39.71,0,*69
1513486899.15,56910,6.63,72420.0,-16.95,-38.35,-39.59,0,*6B
1513486900.41,56911,6.63,72422.3,-16.95,-38.35,-39.71,0,*60
1513486901.71,56912,6.63,72420.5,-16.95,-38.23,-39.59,0,*6E
1513486902.97,56913,6.63,72422.0,-16.95,-38.17,-39.41,0,*61
1513486904.27,56914,6.63,72420.5,-16.91,-37.81,-39.29,0,*6C
1513486905.51,56915,6.63,72422.5,-16.89,-37.75,-39.23,0,*65
1513486906.75,56916,6.63,72424.5,-16.91,-38.17,-39.47,0,*66
1513486908.01,56917,6.63,72428.8,-16.89,-37.93,-39.29,0,*65
1513486909.25,56918,6.63,72422.5,-16.89,-37.87,-39.23,0,*65
1513486910.49,56919,6.63,72418.8,-16.89,-37.93,-39.47,0,*63
1513486911.74,56920,6.63,72416.0,-16.89,-37.51,-38.85,0,*68
1513486912.97,56921,6.63,72414.8,-16.89,-37.75,-39.03,0,*60
1513486914.22,56922,6.63,72412.3,-16.89,-37.87,-39.29,0,*66
1513486915.43,56923,6.63,72418.8,-16.89,-37.57,-39.09,0,*68
1513486916.7,56924,6.63,72410.8,-16.89,-37.93,-39.41,0,*6B
1513486917.96,56925,6.63,72412.3,-16.85,-37.93,-39.29,0,*68
1513486919.22,56926,6.63,72410.5,-16.87,-38.05,-39.41,0,*67
1513486920.46,56927,6.63,72412.5,-16.85,-38.23,-39.65,0,*66
1513486921.7,56928,6.63,72412.5,-16.85,-38.05,-39.29,0,*65
1513486922.96,56929,6.63,72410.5,-16.87,-38.05,-39.41,0,*68
1513486924.16,56930,6.63,72400.8,-16.85,-38.05,-39.47,0,*64
1513486925.43,56931,6.63,72390.3,-16.85,-38.23,-39.71,0,*64
1513486926.7,56932,6.63,72400.0,-16.87,-38.29,-39.65,0,*6A
1513486927.96,56933,6.63,72396.8,-16.85,-38.29,-39.71,0,*6C
1513486929.23,56934,6.63,72400.0,-16.85,-38.29,-39.71,0,*6B
1513486930.5,56935,6.63,72406.3,-16.85,-38.29,-39.71,0,*6A
1513486931.74,56936,6.63,72406.3,-16.85,-38.11,-39.65,0,*67
1513486933.03,56937,6.63,72404.8,-16.87,-38.29,-39.71,0,*6A
1513486934.27,56938,6.63,72406.3,-16.87,-38.43,-39.85,0,*62
1513486935.54,56939,6.63,72404.3,-16.87,-38.29,-39.85,0,*6F
1513486936.75,56940,6.63,72410.3,-16.85,-38.43,-39.85,0,*6F
1513486938.01,56941,6.63,72408.8,-16.87,-38.23,-39.65,0,*64
1513486939.3,56942,6.63,72410.8,-16.87,-38.11,-39.59,0,*69
1513486940.57,56943,6.63,72406.3,-16.87,-38.23,-39.65,0,*66
1513486941.84,56944,6.63,72404.8,-16.87,-38.29,-39.91,0,*60
1513486943.11,56945,6.63,72410.8,-16.87,-38.49,-39.91,0,*67
1513486944.39,56946,6.63,72410.3,-16.87,-38.49,-39.91,0,*64
1513486945.65,56947,6.63,72408.3,-16.87,-38.29,-39.85,0,*66
1513486946.94,56948,6.63,72408.3,-16.87,-38.23,-39.71,0,*68
1513486948.16,56949,6.63,72410.5,-16.85,-38.43,-39.91,0,*63
1513486949.4,56950,6.63,72414.8,-16.87,-38.55,-39.91,0,*6E
1513486950.67,56951,6.63,72408.5,-16.87,-38.49,-39.85,0,*67
1513486951.96,56952,6.63,72406.3,-16.87,-38.29,-39.71,0,*69
1513486953.23,56953,6.63,72400.3,-16.89,-38.29,-39.71,0,*66
1513486954.5,56954,6.63,72410.8,-16.87,-38.29,-39.85,0,*64
1513486955.74,56955,6.63,72408.8,-16.87,-38.43,-39.85,0,*69
1513486956.95,56956,6.63,72410.5,-16.89,-38.43,-39.85,0,*64
1513486958.16,56957,6.63,72408.0,-16.89,-38.43,-39.85,0,*65
1513486959.38,56958,6.63,72410.5,-16.89,-38.43,-39.85,0,*6A
1513486960.63,56959,6.63,72412.0,-16.89,-38.49,-39.91,0,*64
1513486961.85,56960,6.63,72412.0,-16.89,-38.55,-39.91,0,*63
1513486963.06,56961,6.63,72412.5,-16.89,-38.43,-39.85,0,*60
1513486964.3,56962,6.63,72410.8,-16.89,-38.11,-39.65,0,*6A
1513486965.6,56963,6.63,72412.0,-16.91,-38.29,-39.79,0,*64
1513486966.85,56964,6.63,72414.8,-16.89,-38.23,-39.65,0,*6D
1513486968.06,56965,6.63,72410.0,-16.89,-38.43,-39.85,0,*64
1513486969.27,56966,6.63,72406.3,-16.89,-38.43,-39.85,0,*67
1513486970.57,56967,6.63,72408.8,-16.91,-38.29,-39.71,0,*68
1513486971.81,56968,6.63,72410.5,-16.89,-38.05,-39.41,0,*63
1513486973.07,56969,6.63,72420.0,-16.89,-38.23,-39.71,0,*65
1513486974.32,56970,6.63,72416.8,-16.91,-38.35,-39.65,0,*66
1513486975.56,56971,6.63,72418.8,-16.89,-37.69,-39.09,0,*62
1513486976.77,56972,6.63,72418.5,-16.89,-37.33,-38.73,0,*62
1513486978.0,56973,6.63,72412.0,-16.89,-37.15,-38.55,0,*63
1513486979.27,56974,6.63,72412.3,-16.87,-37.09,-38.43,0,*60
1513486980.51,56975,6.63,72410.8,-16.87,-37.15,-38.43,0,*6C
1513486981.75,56976,6.63,72414.0,-16.85,-37.33,-38.67,0,*6F
1513486983.01,56977,6.63,72408.5,-16.85,-37.51,-38.91,0,*63
1513486984.29,56978,6.63,72404.0,-16.83,-37.81,-39.15,0,*6A
1513486985.55,56979,6.63,72400.8,-16.85,-37.93,-39.29,0,*61
1513486986.79,56980,6.63,72394.3,-16.83,-37.99,-39.35,0,*66
1513486988.04,56981,6.63,72394.5,-16.83,-38.05,-39.41,0,*6E
1513486989.26,56982,6.63,72394.5,-16.83,-37.87,-39.35,0,*6B
1513486990.53,56983,6.63,72394.5,-16.83,-37.81,-39.23,0,*6B
1513486991.77,56984,6.63,72398.0,-16.83,-38.05,-39.53,0,*68
1513486993.0,56985,6.63,72396.3,-16.83,-38.17,-39.65,0,*6F
1513486994.25,56986,6.63,72410.8,-16.83,-38.17,-39.59,0,*63
1513486995.51,56987,6.63,72412.8,-16.83,-37.99,-39.53,0,*61
1513486996.75,56988,6.63,72408.8,-16.83,-38.05,-39.53,0,*64
1513486997.98,56989,6.63,72408.3,-16.83,-38.17,-39.65,0,*63
1513486999.23,56990,6.63,72408.5,-16.83,-38.23,-39.65,0,*6C
1513487000.47,56991,6.63,72408.0,-16.83,-37.81,-39.35,0,*6F
1513487001.69,56992,6.63,72408.3,-16.83,-37.87,-39.35,0,*6A
1513487002.96,56993,6.63,72412.0,-16.83,-37.99,-39.53,0,*64
1513487004.23,56994,6.63,72410.3,-16.83,-37.99,-39.53,0,*63
1513487005.5,56995,6.63,72414.0,-16.83,-37.99,-39.41,0,*61
1513487006.77,56996,6.63,72412.5,-16.83,-37.63,-39.03,0,*61
1513487008.04,56997,6.63,72416.3,-16.83,-37.81,-39.15,0,*6B
1513487009.29,56998,6.63,72416.3,-16.83,-37.87,-39.41,0,*63
1513487010.54,56999,6.63,72418.5,-16.83,-37.81,-39.35,0,*67
1513487011.81,57000,6.63,72410.8,-16.83,-37.99,-39.53,0,*66
1513487013.05,57001,6.63,72410.8,-16.83,-38.05,-39.53,0,*6D
1513487014.31,57002,6.63,72410.8,-16.85,-38.23,-39.59,0,*66
1513487015.56,57003,6.63,72410.3,-16.83,-38.05,-39.59,0,*65
1513487016.85,57004,6.63,72412.3,-16.81,-37.69,-39.23,0,*68
1513487018.12,57005,6.63,72412.5,-16.83,-37.99,-39.41,0,*60
1513487019.36,57006,6.63,72414.8,-16.83,-38.05,-39.53,0,*6A
1513487020.63,57007,6.63,72410.5,-16.81,-38.05,-39.59,0,*63
1513487021.87,57008,6.63,72408.0,-16.83,-38.05,-39.59,0,*6E
1513487023.14,57009,6.63,72406.0,-16.81,-38.17,-39.59,0,*6E
1513487024.39,57010,6.63,72404.3,-16.83,-38.23,-39.65,0,*6C
1513487025.64,57011,6.63,72396.5,-16.83,-38.17,-39.59,0,*65
1513487026.87,57012,6.63,72384.3,-16.83,-38.17,-39.65,0,*69
1513487028.11,57013,6.63,72402.5,-16.83,-37.87,-39.41,0,*68
1513487029.36,57014,6.63,72400.0,-16.83,-37.87,-39.41,0,*6F
1513487030.6,57015,6.63,72398.3,-16.83,-38.05,-39.41,0,*6B
1513487031.89,57016,6.63,72396.3,-16.81,-37.69,-39.03,0,*69
1513487033.14,57017,6.63,72402.0,-16.83,-37.87,-39.23,0,*68
1513487034.38,57018,6.63,72408.8,-16.81,-37.87,-39.35,0,*62
1513487035.65,57019,6.63,72418.3,-16.81,-37.87,-39.23,0,*64
1513487036.89,57020,6.63,72424.3,-16.83,-37.81,-39.35,0,*6D
1513487038.14,57021,6.63,72422.3,-16.81,-37.87,-39.35,0,*68
1513487039.4,57022,6.63,72426.5,-16.83,-37.69,-39.23,0,*6E
1513487040.67,57023,6.63,72424.0,-16.81,-37.87,-39.41,0,*69
1513487041.89,57024,6.63,72426.3,-16.83,-37.87,-39.35,0,*6F
1513487043.18,57025,6.63,72428.0,-16.81,-37.99,-39.41,0,*60
1513487044.47,57026,6.63,72424.8,-16.81,-37.69,-39.03,0,*6A
1513487045.74,57027,6.63,72422.0,-16.81,-37.33,-38.79,0,*68
1513487047.0,57028,6.63,72420.5,-16.81,-37.45,-38.79,0,*66
1513487048.27,57029,6.63,72418.8,-16.81,-37.63,-38.97,0,*63
1513487049.56,57030,6.63,72418.3,-16.81,-37.99,-39.53,0,*67
1513487050.82,57031,6.63,72414.3,-16.81,-38.05,-39.41,0,*6F
1513487052.06,57032,6.63,72414.8,-16.83,-38.05,-39.53,0,*6D
1513487053.31,57033,6.63,72422.0,-16.81,-38.17,-39.65,0,*68
1513487054.57,57034,6.63,72422.8,-16.81,-37.45,-39.03,0,*67
1513487055.81,57035,6.63,72424.3,-16.81,-36.85,-38.05,0,*6C
1513487057.08,57036,6.63,72416.5,-16.79,-36.79,-37.99,0,*61
1513487058.34,57037,6.63,72412.5,-16.79,-36.79,-38.11,0,*6F
1513487059.59,57038,6.63,72414.5,-16.79,-36.85,-38.29,0,*68
1513487060.83,57039,6.63,72412.3,-16.77,-37.15,-38.61,0,*63
1513487062.08,57040,6.63,72406.5,-16.77,-37.15,-38.55,0,*6A
1513487063.29,57041,6.63,72408.5,-16.75,-37.33,-38.85,0,*60
1513487064.53,57042,6.63,72410.0,-16.75,-37.75,-39.03,0,*6E
1513487065.75,57043,6.63,72412.0,-16.75,-37.75,-39.09,0,*65
1513487066.99,57044,6.63,72410.0,-16.75,-37.69,-39.09,0,*6F
1513487068.28,57045,6.63,72410.8,-16.77,-37.93,-39.29,0,*6B
1513487069.49,57046,6.63,72412.8,-16.75,-38.05,-39.47,0,*62
1513487070.72,57047,6.63,72414.5,-16.75,-38.05,-39.41,0,*65
1513487071.98,57048,6.63,72414.8,-16.77,-37.93,-39.35,0,*6B
1513487073.23,57049,6.63,72414.3,-16.75,-37.87,-39.23,0,*6A
1513487074.51,57050,6.63,72400.5,-16.77,-37.93,-39.53,0,*62
1513487075.77,57051,6.63,72400.3,-16.77,-37.99,-39.47,0,*6C
1513487077.03,57052,6.63,72404.0,-16.77,-37.99,-39.35,0,*6A
1513487078.29,57053,6.63,72408.5,-16.77,-37.99,-39.35,0,*6B
1513487079.56,57054,6.63,72412.0,-16.77,-37.93,-39.35,0,*66
1513487080.85,57055,6.63,72426.3,-16.77,-37.93,-39.15,0,*65
1513487082.12,57056,6.63,72420.8,-16.77,-37.81,-39.09,0,*68
1513487083.39,57057,6.63,72426.0,-16.79,-37.93,-39.15,0,*69
1513487084.65,57058,6.63,72420.0,-16.77,-37.39,-38.73,0,*69
1513487085.92,57059,6.63,72430.5,-16.77,-37.57,-38.91,0,*6C
1513487087.19,57060,6.63,72428.3,-16.75,-36.91,-38.23,0,*66
1513487088.46,57061,6.63,72426.8,-16.75,-37.09,-38.49,0,*6B
1513487089.73,57062,6.63,72420.8,-16.75,-37.09,-38.49,0,*68
1513487091.0,57063,6.63,72422.3,-16.75,-36.91,-38.49,0,*69
1513487092.29,57064,6.63,72422.0,-16.73,-37.09,-38.49,0,*68
1513487093.59,57065,6.63,72420.0,-16.73,-37.09,-38.49,0,*69
1513487094.86,57066,6.63,72420.5,-16.75,-37.09,-38.49,0,*6C
1513487096.1,57067,6.63,72418.8,-16.69,-37.03,-38.43,0,*60
1513487097.34,57068,6.63,72418.5,-16.69,-37.03,-38.43,0,*6F
1513487098.59,57069,6.63,72414.5,-16.69,-37.03,-38.43,0,*6E
1513487099.83,57070,6.63,72406.5,-16.67,-37.09,-38.61,0,*62
1513487101.1,57071,6.63,72416.0,-16.69,-36.91,-38.43,0,*6D
1513487102.34,57072,6.63,72412.3,-16.69,-37.03,-38.43,0,*64
1513487103.61,57073,6.63,72410.3,-16.69,-37.09,-38.43,0,*6F
1513487104.85,57074,6.63,72408.3,-16.67,-37.33,-38.67,0,*69
1513487106.09,57075,6.63,72416.5,-16.67,-37.33,-38.79,0,*67
1513487107.36,57076,6.63,72412.5,-16.67,-37.81,-39.15,0,*66
1513487108.65,57077,6.63,72418.5,-16.69,-37.69,-39.23,0,*6A
1513487109.91,57078,6.63,72418.8,-16.67,-37.69,-39.23,0,*6B
1513487111.2,57079,6.63,72414.0,-16.69,-37.81,-39.23,0,*62
1513487112.44,57080,6.63,72420.8,-16.69,-37.87,-39.35,0,*65
1513487113.7,57081,6.63,72418.8,-16.67,-37.63,-39.15,0,*62
1513487115.0,57082,6.63,72416.5,-16.69,-37.81,-39.23,0,*66
1513487116.25,57083,6.63,72416.8,-16.69,-37.99,-39.35,0,*69
1513487117.52,57084,6.63,72416.5,-16.67,-37.69,-39.23,0,*68
1513487118.78,57085,6.63,72416.0,-16.69,-37.81,-39.35,0,*66
1513487120.07,57086,6.63,72410.5,-16.69,-37.81,-39.23,0,*62
1513487121.31,57087,6.63,72408.5,-16.69,-37.87,-39.47,0,*67
1513487122.57,57088,6.63,72406.3,-16.69,-37.81,-39.35,0,*6B
1513487123.84,57089,6.63,72402.5,-16.69,-37.87,-39.23,0,*6B
1513487125.1,57090,6.63,72404.0,-16.69,-37.87,-39.23,0,*63
1513487126.39,57091,6.63,72408.0,-16.69,-37.81,-39.23,0,*64
1513487127.63,57092,6.63,72416.8,-16.73,-37.75,-39.09,0,*6F
1513487128.87,57093,6.63,72426.0,-16.75,-37.87,-39.41,0,*69
1513487130.11,57094,6.63,72426.0,-16.75,-37.75,-39.29,0,*6D
1513487131.4,57095,6.63,72418.3,-16.73,-37.93,-39.41,0,*6C
1513487132.65,57096,6.63,72418.0,-16.73,-38.05,-39.53,0,*6C
1513487133.91,57097,6.63,72420.5,-16.73,-38.05,-39.53,0,*6D
1513487135.18,57098,6.63,72426.5,-16.73,-37.87,-39.29,0,*6A
1513487136.41,57099,6.63,72422.8,-16.73,-37.87,-39.47,0,*63
1513487137.7,57100,6.63,72420.8,-16.73,-37.51,-38.91,0,*63
1513487138.96,57101,6.63,72406.3,-16.73,-37.75,-39.23,0,*6C
1513487140.18,57102,6.63,72406.3,-16.75,-37.57,-39.09,0,*61
1513487141.42,57103,6.63,72408.8,-16.75,-37.69,-39.09,0,*6D
1513487142.66,57104,6.63,72424.3,-16.73,-37.75,-39.09,0,*61
1513487143.95,57105,6.63,72436.8,-16.73,-37.39,-38.91,0,*68
1513487145.19,57106,6.63,72426.8,-16.75,-37.75,-39.29,0,*67
1513487146.45,57107,6.63,72424.3,-16.73,-37.57,-38.91,0,*62
1513487147.75,57108,6.63,72420.8,-16.73,-37.21,-38.67,0,*65
1513487149.02,57109,6.63,72422.0,-16.75,-37.21,-38.67,0,*62
1513487150.25,57110,6.63,72416.5,-16.73,-37.33,-38.73,0,*6A
1513487151.49,57111,6.63,72418.8,-16.75,-37.57,-39.03,0,*69
1513487152.78,57112,6.63,72416.8,-16.73,-37.39,-38.91,0,*6E
1513487154.04,57113,6.63,72412.5,-16.73,-37.57,-38.91,0,*67
1513487155.3,57114,6.63,72410.0,-16.73,-37.87,-39.29,0,*6F
1513487156.54,57115,6.63,72388.8,-16.73,-37.75,-39.09,0,*61
1513487157.83,57116,6.63,72390.5,-16.73,-37.51,-38.91,0,*64
1513487159.08,57117,6.63,72390.8,-16.75,-37.39,-38.85,0,*68
1513487160.34,57118,6.63,72396.0,-16.75,-37.51,-38.91,0,*6C
1513487161.6,57119,6.63,72412.0,-16.73,-37.39,-38.73,0,*69
1513487162.89,57120,6.63,72420.3,-16.73,-37.69,-39.23,0,*62
1513487164.13,57121,6.63,72424.5,-16.73,-37.87,-39.09,0,*6B
1513487165.4,57122,6.63,72434.8,-16.73,-37.51,-38.85,0,*66
1513487166.63,57123,6.63,72434.5,-16.73,-37.33,-38.73,0,*6A
1513487167.89,57124,6.63,72432.0,-16.73,-37.39,-38.73,0,*67
1513487169.16,57125,6.63,72430.0,-16.69,-37.03,-38.49,0,*6D
1513487170.42,57126,6.63,72426.5,-16.69,-37.45,-38.79,0,*6F
1513487171.68,57127,6.63,72422.3,-16.69,-37.33,-38.67,0,*60
1513487172.95,57128,6.63,72424.0,-16.69,-37.51,-38.85,0,*67
1513487174.23,57129,6.63,72420.5,-16.73,-37.69,-39.03,0,*69
1513487175.52,57130,6.63,72420.5,-16.73,-37.51,-39.03,0,*6A
1513487176.78,57131,6.63,72416.0,-16.73,-37.51,-39.09,0,*61
1513487178.05,57132,6.63,72416.3,-16.73,-37.87,-39.29,0,*6B
1513487179.31,57133,6.63,72416.3,-16.73,-37.75,-39.29,0,*67
1513487180.58,57134,6.63,72408.5,-16.73,-37.87,-39.29,0,*6D
1513487181.84,57135,6.63,72398.8,-16.73,-37.75,-39.29,0,*61
1513487183.1,57136,6.63,72404.8,-16.73,-37.69,-39.09,0,*6D
1513487184.37,57137,6.63,72412.8,-16.73,-37.87,-39.23,0,*64
1513487185.66,57138,6.63,72412.8,-16.73,-37.69,-39.23,0,*6B
1513487186.91,57139,6.63,72418.8,-16.73,-37.75,-39.03,0,*65
1513487188.15,57140,6.63,72418.0,-16.75,-37.57,-38.91,0,*67
1513487189.44,57141,6.63,72408.3,-16.73,-37.69,-39.03,0,*67
1513487190.7,57142,6.63,72416.8,-16.73,-37.87,-39.23,0,*66
1513487191.99,57143,6.63,72420.8,-16.73,-37.93,-39.41,0,*66
1513487193.23,57144,6.63,72424.0,-16.75,-37.69,-39.09,0,*6E
1513487194.52,57145,6.63,72428.5,-16.73,-37.69,-39.03,0,*63
1513487195.76,57146,6.63,72430.0,-16.73,-37.15,-38.55,0,*69
1513487197.03,57147,6.63,72430.5,-16.75,-37.09,-38.49,0,*6E
1513487198.3,57148,6.63,72424.5,-16.73,-37.21,-38.73,0,*64
1513487199.58,57149,6.63,72418.5,-16.73,-37.51,-39.03,0,*64
1513487200.87,57150,6.63,72414.5,-16.73,-37.69,-39.23,0,*65
1513487202.11,57151,6.63,72408.5,-16.73,-37.57,-39.09,0,*61
1513487203.35,57152,6.63,72404.0,-16.73,-37.57,-39.09,0,*62
1513487204.64,57153,6.63,72402.8,-16.73,-37.51,-38.91,0,*65
1513487205.93,57154,6.63,72412.8,-16.73,-37.51,-38.91,0,*62
1513487207.21,57155,6.63,72420.5,-16.73,-37.51,-39.03,0,*69
1513487208.48,57156,6.63,72422.3,-16.73,-37.51,-38.85,0,*65
1513487209.74,57157,6.63,72426.3,-16.73,-37.57,-39.03,0,*6D
1513487211.0,57158,6.63,72430.3,-16.75,-37.51,-39.03,0,*62
1513487212.27,57159,6.63,72428.8,-16.75,-37.51,-38.91,0,*69
1513487213.54,57160,6.63,72430.0,-16.73,-36.97,-38.49,0,*6B
1513487214.78,57161,6.63,72434.0,-16.75,-36.97,-38.49,0,*6C
1513487216.02,57162,6.63,72422.3,-16.75,-37.15,-38.67,0,*68
1513487217.29,57163,6.63,72416.0,-16.73,-37.09,-38.35,0,*65
1513487218.56,57164,6.63,72418.0,-16.73,-37.15,-38.49,0,*64
1513487219.8,57165,6.63,72414.8,-16.73,-37.15,-38.73,0,*6C
1513487221.03,57166,6.63,72416.8,-16.73,-37.57,-39.09,0,*65
1513487222.32,57167,6.63,72416.8,-16.73,-37.69,-39.23,0,*61
1513487223.58,57168,6.63,72416.0,-16.73,-37.57,-39.03,0,*61
1513487224.87,57169,6.63,72406.0,-16.73,-37.69,-39.03,0,*6D
1513487226.13,57170,6.63,72398.5,-16.75,-37.51,-38.91,0,*62
1513487227.42,57171,6.63,72392.8,-16.73,-37.51,-38.91,0,*65
1513487228.68,57172,6.63,72408.0,-16.73,-37.39,-38.73,0,*64
1513487229.97,57173,6.63,72416.5,-16.73,-37.69,-39.23,0,*64
1513487231.21,57174,6.63,72420.0,-16.73,-37.57,-38.85,0,*63
1513487232.44,57175,6.63,72424.5,-16.73,-37.33,-38.85,0,*60
1513487233.72,57176,6.63,72418.0,-16.73,-37.21,-38.85,0,*60
1513487234.98,57177,6.63,72414.5,-16.73,-37.51,-38.85,0,*66
1513487236.27,57178,6.63,72418.0,-16.73,-37.51,-38.91,0,*6C
1513487237.56,57179,6.63,72418.8,-16.73,-37.51,-39.03,0,*67
1513487238.83,57180,6.63,72416.5,-16.73,-37.21,-38.85,0,*69
1513487240.09,57181,6.63,72420.3,-16.75,-37.51,-39.03,0,*66
1513487241.36,57182,6.63,72424.5,-16.73,-37.69,-39.09,0,*62
1513487242.6,57183,6.63,72422.0,-16.75,-37.69,-39.09,0,*65
1513487243.86,57184,6.63,72422.0,-16.73,-37.57,-39.03,0,*63
1513487245.1,57185,6.63,72420.5,-16.75,-37.57,-39.23,0,*66
1513487246.38,57186,6.63,72422.5,-16.73,-37.39,-38.91,0,*63
1513487247.59,57187,6.63,72422.5,-16.75,-37.33,-38.73,0,*62
1513487248.86,57188,6.63,72416.8,-16.75,-37.51,-38.91,0,*65
1513487250.14,57189,6.63,72410.8,-16.73,-37.51,-39.03,0,*68
1513487251.38,57190,6.63,72418.8,-16.75,-37.57,-39.03,0,*60
1513487252.65,57191,6.63,72420.0,-16.73,-37.15,-38.67,0,*62
1513487253.91,57192,6.63,72422.8,-16.75,-36.91,-38.49,0,*66
1513487255.19,57193,6.63,72422.5,-16.75,-37.21,-38.67,0,*61
1513487256.43,57194,6.63,72424.5,-16.75,-37.21,-38.73,0,*63
1513487257.7,57195,6.63,72424.3,-16.73,-37.09,-38.55,0,*6A
1513487258.96,57196,6.63,72422.3,-16.73,-36.73,-38.11,0,*65
1513487260.23,57197,6.63,72408.0,-16.73,-36.97,-38.23,0,*6F
1513487261.5,57198,6.63,72412.5,-16.73,-37.15,-38.67,0,*6B
1513487262.73,57199,6.63,72422.8,-16.73,-37.33,-38.73,0,*6B
1513487264.0,57200,6.63,72426.8,-16.73,-37.21,-38.85,0,*62
1513487265.29,57201,6.63,72426.8,-16.73,-36.91,-38.11,0,*64
1513487266.56,57202,6.63,72420.5,-16.69,-37.09,-38.61,0,*6B
1513487267.82,57203,6.63,72424.0,-16.69,-37.45,-38.79,0,*6B
1513487269.09,57204,6.63,72420.8,-16.69,-37.27,-38.79,0,*68
1513487270.36,57205,6.63,72424.3,-16.69,-37.09,-38.61,0,*6C
1513487271.62,57206,6.63,72420.5,-16.69,-37.09,-38.61,0,*6F
1513487272.89,57207,6.63,72416.3,-16.69,-37.15,-38.49,0,*69
1513487274.14,57208,6.63,72416.3,-16.73,-36.97,-38.55,0,*6B
1513487275.38,57209,6.63,72408.8,-16.73,-37.15,-38.55,0,*61
1513487276.62,57210,6.63,72406.5,-16.73,-37.33,-38.85,0,*60
1513487277.88,57211,6.63,72400.3,-16.69,-37.09,-38.61,0,*69
1513487279.15,57212,6.63,72402.8,-16.69,-37.03,-38.49,0,*6A
1513487280.44,57213,6.63,72398.5,-16.69,-37.09,-38.79,0,*62
1513487281.71,57214,6.63,72412.3,-16.69,-37.15,-38.79,0,*68
1513487283.0,57215,6.63,72414.5,-16.69,-36.91,-38.49,0,*67
1513487284.29,57216,6.63,72418.5,-16.69,-37.09,-38.49,0,*64
1513487285.56,57217,6.63,72428.3,-16.69,-37.15,-38.67,0,*64
1513487286.83,57218,6.63,72428.8,-16.73,-37.09,-38.55,0,*6C
1513487288.07,57219,6.63,72430.0,-16.73,-36.97,-38.55,0,*6B
1513487289.34,57220,6.63,72426.5,-16.69,-36.91,-38.43,0,*6B
1513487290.59,57221,6.63,72424.5,-16.69,-36.85,-38.43,0,*6F
1513487291.85,57222,6.63,72420.8,-16.69,-37.03,-38.49,0,*69
1513487293.12,57223,6.63,72418.5,-16.69,-37.15,-38.79,0,*6C
1513487294.38,57224,6.63,72420.0,-16.69,-37.33,-38.79,0,*6F
1513487295.63,57225,6.63,72418.8,-16.67,-37.09,-38.61,0,*60
1513487296.92,57226,6.63,72416.5,-16.69,-37.09,-38.67,0,*6B
1513487298.18,57227,6.63,72412.8,-16.69,-37.33,-38.79,0,*6C
1513487299.44,57228,6.63,72406.5,-16.69,-37.33,-38.79,0,*63
1513487300.71,57229,6.63,72410.8,-16.69,-37.03,-38.49,0,*62
1513487301.98,57230,6.63,72414.0,-16.69,-37.15,-38.49,0,*6D
1513487303.24,57231,6.63,72416.5,-16.69,-37.15,-38.67,0,*60